Regional Weather Roundup
Issued by NWS Little Rock, AR

Home | Current Version | Previous Version | Text Only | Print | Product List | Glossary Off
Versions: 1 2 3 4 5 6 7 8 9 10 11 12 13 14 15 16 17 18 19 20 21 22 23 24 25 26 27 28 29 30 31 32 33 34 35 36 37 38 39 40 41 42 43 44 45 46 47 48 49 50

000
ASUS44 KLZK 280105
RWRLZK

WEATHER ROUNDUP FOR ARKANSAS
NATIONAL WEATHER SERVICE LITTLE ROCK AR
800 PM CDT FRI MAR 27 2015

NOTE: "FAIR" INDICATES FEW OR NO CLOUDS BELOW 12,000 FEET WITH NO
SIGNIFICANT WEATHER AND/OR OBSTRUCTIONS TO VISIBILITY.

ARZ001-003-010-029-280200-
NORTHWEST ARKANSAS

CITY           SKY/WX    TMP DP  RH WIND       PRES   REMARKS
FAYETTEVILLE   CLOUDY    45  26  47 W6        30.14R
FORT SMITH     MOCLDY    51  25  36 N8        30.14R
HARRISON       MOCLDY    42  22  44 NW3       30.13R
BENTONVILLE    MOCLDY    46  21  36 NW8       30.14R
ROGERS         MOCLDY    44  25  47 NE3       30.15R
SILOAM SPGS    CLOUDY    45  25  45 N9        30.16S
HIGHFILL       CLOUDY    45  25  45 NW6       30.14R
SPRINGDALE     CLOUDY    46  23  39 NW7       30.15S
$$

ARZ004-005-016-280200-
NORTH CENTRAL ARKANSAS

CITY           SKY/WX    TMP DP  RH WIND       PRES   REMARKS
BATESVILLE     CLEAR     45  25  45 N3        30.15R
FLIPPIN        CLEAR     45  23  42 NW5       30.13S
MTN HOME       CLEAR     40  23  50 CALM      30.12S
$$

ARZ040-041-280200-
WEST CENTRAL ARKANSAS

CITY           SKY/WX    TMP DP  RH WIND       PRES   REMARKS
MENA           MOCLDY    52  30  43 CALM      30.13R
MOUNT IDA      MOCLDY    48  29  47 CALM      30.10S
$$

ARZ009-017-025-026-028-280200-
NORTHEAST ARKANSAS

CITY           SKY/WX    TMP DP  RH WIND       PRES   REMARKS
CORNING          N/A     39  28  65 NE7       30.16S
JONESBORO      PTCLDY    41  28  60 NE5       30.15R
NEWPORT        CLEAR     42  29  60 N8        30.17R
BLYTHEVILLE    CLEAR     38  29  70 NE12      30.16S
$$

ARZ022-023-033-042-044-280200-
CENTRAL ARKANSAS

CITY           SKY/WX    TMP DP  RH WIND       PRES   REMARKS
LITTLE ROCK    MOCLDY    49  26  41 N5        30.14R
N LITTLE ROCK  MOCLDY    48  31  52 N3        30.14R
JACKSONVILLE   MOCLDY    47  28  46 N3        30.13R
SEARCY         PTCLDY    45  29  53 N7        30.16R
HOT SPRINGS    PTCLDY    51  30  44 CALM      30.13R
RUSSELLVILLE   PTCLDY    51  21  30 NW5       30.13R
CLINTON        FAIR      46  27  46 CALM      30.15S
$$

ARZ036-280200-
EAST ARKANSAS

CITY           SKY/WX    TMP DP  RH WIND       PRES   REMARKS
WEST MEMPHIS   CLEAR     42  34  73 NE8       30.14R
$$

ARZ050-053-066-070-073-280200-
SOUTHWEST ARKANSAS

CITY           SKY/WX    TMP DP  RH WIND       PRES   REMARKS
ARKADELPHIA    FAIR      52  35  52 N5        30.14R
CAMDEN         PTCLDY    50  36  57 CALM      30.13R
TEXARKANA      MOCLDY    55  30  38 N8        30.12R
EL DORADO      PTCLDY    53  36  52 NE6       30.12R
DE QUEEN       MOCLDY    53  33  46 CALM      30.12S
$$

ARZ056-057-069-280200-
SOUTHEAST ARKANSAS

CITY           SKY/WX    TMP DP  RH WIND       PRES   REMARKS
PINE BLUFF     PTCLDY    48  35  60 NE5       30.13S
STUTTGART      PTCLDY    46  34  61 N8        30.15R
MONTICELLO     PTCLDY    48  37  65 CALM      30.13R

$$




USA.gov is the U.S. government's official web portal to all federal, state and local government web resources and services.